{"data":{"norad_id":67427,"epoch":"2026-05-25T03:06:33.691104Z","epoch_age_seconds":63317,"freshness":"FRESH","line1":"1 67427U 26005Z   26145.12955661  .00032687  00000+0  11926-2 0  9998","line2":"2 67427  43.0008 166.5771 0001839 265.2878  94.7764 15.27565796 20377","mean_motion":15.27565796,"eccentricity":0.0001839,"inclination_deg":43.0008,"raan_deg":166.5771,"arg_perigee_deg":265.2878,"mean_anomaly_deg":94.7764,"bstar":0.0011926,"rev_number":2037,"period_min":94.267625248661,"perigee_km":481.82984831035,"apogee_km":484.35340819982,"semimajor_km":6861.2286282551,"source":"CELESTRAK","updated_at":"2026-05-25T13:38:21.557465Z"}}